OneWeb SL0156

operational
NORAD ID: 48052 Int'l Des: 2021-025 Owner: ONEWEBN Country: UK Constellation: oneweb
LEOCIRCULARPOLARONEWEB_TYPE

OneWeb SL0156について

説明を読み込み中...

リアルタイム位置

3D地球を読み込み中...

次回通過

高度履歴

Altitude vs Time

uPlot chart will show altitude changes over time

軌道要素

1 48052U 21025L 25258.57411064 -.00000134 00000-0 -40289-3 0 9995
2 48052 87.9037 14.7613 0001904 102.4100 257.7242 13.13469951217527
Epoch: Sep 15, 2025 • Age: 16 hours

現在のステータス

高度 1227.1 km
速度 7.24 km/s
衛星直下点 -42.10°S, 73°W
打ち上げ日 Mar 25, 2021
運用期間 4.4 years
タイプ internet

技術仕様

分類 Payload
質量 148.00 kg
乾燥質量 140.00 kg
総質量 148.00 kg
長さ 1.30 m
直径 1.00 m
スパン 5.00 m
形状 Trapezoid+2 pan
製造者 ONEWUS
バスタイプ ARROW
フェーズステータス In Orbit
所有者/国 ONEWEBN/UK

大規模コンステレーション

Loading constellations...